Starlink 32279

operational
NORAD ID: 61003 Int'l Des: 2024-158 Owner: SPXS Country: US Constellation: starlink
LEOCIRCULAR

关于 Starlink 32279

正在加载描述...

实时位置

正在加载3D地球...

即将过境

高度历史

Altitude vs Time

uPlot chart will show altitude changes over time

两行轨道根数

1 61003U 24158P 25304.25586321 .00000374 00000-0 24751-4 0 9993
2 61003 53.1615 306.7880 0001497 94.4691 265.6481 15.30192811 65834
Epoch: Oct 31, 2025 • Age: 11 hours

当前状态

高度 488.0 km
速度 7.62 km/s
星下点 -37.01°S, 23.24°W
发射日期 Sep 5, 2024
运行时间 1.1 years
类型 internet

技术详情

分类 Payload
质量 730.00 kg
干质量 700.00 kg
总质量 730.00 kg
长度 0.30 m
直径 4.10 m
跨度 29.00 m
形状 Box + pan
制造商 SPXS
平台类型 Starlink V2M
阶段状态 In Orbit
所有者/国家 SPXS/US

大型星座

Loading constellations...